Time,TemperatureF,DewpointF,PressureIn,WindDirection,WindDirectionDegrees,WindSpeedMPH,WindSpeedGustMPH,Humidity,HourlyPrecipIn,Conditions,Clouds,dailyrainin,SoftwareType,DateUTC
2013-04-12 00:00:00,54.8,32.8,25.83,SE,135,0.0,2.0,43,0.00,,,0.00,VWS V14.01,2013-04-12 07:00:00,
2013-04-12 00:30:00,54.7,31.5,25.83,SE,135,0.0,1.0,41,0.00,,,0.00,VWS V14.01,2013-04-12 07:30:00,
2013-04-12 01:00:00,54.9,29.1,25.83,SE,135,0.0,4.0,37,0.00,,,0.00,VWS V14.01,2013-04-12 08:00:00,
2013-04-12 01:30:00,54.4,27.3,25.83,South,180,0.0,2.0,35,0.00,,,0.00,VWS V14.01,2013-04-12 08:30:00,
2013-04-12 02:00:00,54.2,25.7,25.83,South,180,0.0,0.0,33,0.00,,,0.00,VWS V14.01,2013-04-12 09:00:00,
2013-04-12 02:30:00,54.2,24.2,25.83,South,180,0.0,2.0,31,0.00,,,0.00,VWS V14.01,2013-04-12 09:30:00,
2013-04-12 03:00:00,55.0,23.4,25.83,South,180,0.0,2.0,29,0.00,,,0.00,VWS V14.01,2013-04-12 10:00:00,
2013-04-12 03:30:00,55.1,21.7,25.83,South,180,1.0,3.0,27,0.00,,,0.00,VWS V14.01,2013-04-12 10:30:00,
2013-04-12 04:00:00,54.5,20.3,25.83,South,180,0.0,2.0,26,0.00,,,0.00,VWS V14.01,2013-04-12 11:00:00,
2013-04-12 04:30:00,54.4,19.3,20.88,South,180,0.0,1.0,25,0.00,,,0.00,VWS V14.01,2013-04-12 11:30:00,
2013-04-12 05:00:00,55.4,18.2,20.88,South,180,0.0,3.0,23,0.00,,,0.00,VWS V14.01,2013-04-12 12:00:00,
2013-04-12 05:30:00,55.9,18.7,20.88,South,180,0.0,2.0,23,0.00,,,0.00,VWS V14.01,2013-04-12 12:30:00,
2013-04-12 06:00:00,56.3,20.0,20.88,South,180,0.0,2.0,24,0.00,,,0.00,VWS V14.01,2013-04-12 13:00:00,
2013-04-12 06:30:00,56.5,21.1,20.88,WSW,248,0.0,4.0,25,0.00,,,0.00,VWS V14.01,2013-04-12 13:30:00,
2013-04-12 07:00:00,56.9,22.4,20.88,WSW,248,0.0,2.0,26,0.00,,,0.00,VWS V14.01,2013-04-12 14:00:00,
2013-04-12 07:30:00,57.2,25.2,20.88,WSW,248,0.0,2.0,29,0.00,,,0.00,VWS V14.01,2013-04-12 14:30:00,
2013-04-12 08:00:00,57.2,27.6,20.88,WSW,248,0.0,2.0,32,0.00,,,0.00,VWS V14.01,2013-04-12 15:00:00,
2013-04-12 08:30:00,57.3,29.2,20.88,SE,135,0.0,4.0,34,0.00,,,0.00,VWS V14.01,2013-04-12 15:30:00,
2013-04-12 09:00:00,58.0,31.2,20.88,WSW,248,0.0,6.0,36,0.00,,,0.00,VWS V14.01,2013-04-12 16:00:00,
2013-04-12 09:30:00,58.3,33.5,20.88,WSW,248,1.0,5.0,39,0.00,,,0.00,VWS V14.01,2013-04-12 16:30:00,
2013-04-12 10:00:00,59.0,35.3,20.88,SW,225,2.0,6.0,41,0.00,,,0.00,VWS V14.01,2013-04-12 17:00:00,
2013-04-12 10:30:00,59.0,36.6,20.88,WSW,248,4.0,10.0,43,0.00,,,0.00,VWS V14.01,2013-04-12 17:30:00,
2013-04-12 11:00:00,59.0,37.1,20.88,WSW,248,5.0,12.0,44,0.00,,,0.00,VWS V14.01,2013-04-12 18:00:00,
2013-04-12 11:30:00,59.1,37.2,20.88,SW,225,6.0,13.0,44,0.00,,,0.00,VWS V14.01,2013-04-12 18:30:00,
2013-04-12 12:00:00,61.0,39.5,20.88,WSW,248,6.0,13.0,45,0.00,,,0.00,VWS V14.01,2013-04-12 19:00:00,
2013-04-12 12:30:00,61.1,39.6,20.88,SW,225,5.0,13.0,45,0.00,,,0.00,VWS V14.01,2013-04-12 19:30:00,
2013-04-12 13:00:00,60.3,39.5,20.88,WSW,248,5.0,14.0,46,0.00,,,0.00,VWS V14.01,2013-04-12 20:00:00,
2013-04-12 13:30:00,61.1,40.7,20.88,WSW,248,5.0,13.0,47,0.00,,,0.00,VWS V14.01,2013-04-12 20:30:00,
2013-04-12 14:00:00,60.8,40.5,20.88,SW,225,6.0,12.0,47,0.00,,,0.00,VWS V14.01,2013-04-12 21:00:00,
2013-04-12 14:30:00,62.7,42.2,20.88,WSW,248,5.0,13.0,47,0.00,,,0.00,VWS V14.01,2013-04-12 21:30:00,
2013-04-12 15:00:00,60.8,40.5,20.88,WSW,248,6.0,14.0,47,0.00,,,0.00,VWS V14.01,2013-04-12 22:00:00,
2013-04-12 15:30:00,60.7,39.8,20.88,SW,225,6.0,14.0,46,0.00,,,0.00,VWS V14.01,2013-04-12 22:30:00,
2013-04-12 16:00:00,61.0,40.1,20.88,WSW,248,5.0,12.0,46,0.00,,,0.00,VWS V14.01,2013-04-12 23:00:00,
2013-04-12 16:30:00,60.1,38.1,20.88,SW,225,6.0,14.0,44,0.00,,,0.00,VWS V14.01,2013-04-12 23:30:00,
2013-04-12 17:00:00,60.7,39.3,20.88,WSW,248,6.0,11.0,45,0.00,,,0.00,VWS V14.01,2013-04-13 00:00:00,
2013-04-12 17:30:00,59.4,38.1,20.88,West,270,5.0,11.0,45,0.00,,,0.00,VWS V14.01,2013-04-13 00:30:00,
2013-04-12 18:00:00,59.0,36.6,20.88,WSW,248,5.0,11.0,43,0.00,,,0.00,VWS V14.01,2013-04-13 01:00:00,
2013-04-12 18:30:00,57.8,32.4,20.88,WSW,248,5.0,11.0,38,0.00,,,0.00,VWS V14.01,2013-04-13 01:30:00,
2013-04-12 19:00:00,56.8,29.5,20.88,West,270,4.0,11.0,35,0.00,,,0.00,VWS V14.01,2013-04-13 02:00:00,
2013-04-12 19:30:00,56.1,25.1,20.88,WSW,248,3.0,8.0,30,0.00,,,0.00,VWS V14.01,2013-04-13 02:30:00,
2013-04-12 20:00:00,55.5,23.0,20.88,WSW,248,2.0,8.0,28,0.00,,,0.00,VWS V14.01,2013-04-13 03:00:00,
2013-04-12 20:30:00,55.3,21.0,24.80,SW,225,2.0,7.0,26,0.00,,,0.00,VWS V14.01,2013-04-13 03:30:00,
2013-04-12 21:00:00,55.1,19.9,24.80,WSW,248,2.0,6.0,25,0.00,,,0.00,VWS V14.01,2013-04-13 04:00:00,
2013-04-12 21:30:00,55.1,19.0,24.80,WSW,248,0.0,3.0,24,0.00,,,0.00,VWS V14.01,2013-04-13 04:30:00,
2013-04-12 22:00:00,55.1,18.0,24.80,WSW,248,0.0,1.0,23,0.00,,,0.00,VWS V14.01,2013-04-13 05:00:00,
2013-04-12 22:30:00,55.1,18.0,24.80,SE,135,0.0,4.0,23,0.00,,,0.00,VWS V14.01,2013-04-13 05:30:00,
2013-04-12 23:00:00,55.0,17.9,24.80,ESE,112,1.0,5.0,23,0.00,,,0.00,VWS V14.01,2013-04-13 06:00:00,
2013-04-12 23:30:00,54.8,17.7,24.80,ENE,68,2.0,7.0,23,0.00,,,0.00,VWS V14.01,2013-04-13 06:30:00,